When you browse on this site, cookies collect data to enhance your experience and personalize the content and advertising you see.
Visit our Privacy Policy to learn more. By continuing to use the site, you agree to this use of cookies and data.
  • In Österreich
  • Länderverzeichnis
  • Für 7 Tage
  • Wassertemperatur
  • Wetterkarte
  • News
  • Widgets
  • user-avatar
    Anmelden

    Stündliche Wetter Canillo

    Heute, 3 Juni, Mittwoch

    Zeit Temperatur Niederschläge Wind Luftdruck Luftfeuchtigkeit
    00:00 +9°C° 0 mm 1 m/S 616 mmHg 92%
    01:00 +9°C° 0 mm 1 m/S 616 mmHg 92%
    02:00 +9°C° 0 mm 1 m/S 615 mmHg 92%
    03:00 +9°C° 0 mm 1 m/S 615 mmHg 92%
    04:00 +10°C° 0 mm 1 m/S 615 mmHg 90%
    05:00 +10°C° 0 mm 1 m/S 615 mmHg 88%
    06:00 +12°C° 0 mm 1 m/S 616 mmHg 85%
    07:00 +13°C° 0.6 mm 1 m/S 616 mmHg 81%
    08:00 +14°C° 0.6 mm 1 m/S 616 mmHg 78%
    09:00 +15°C° 0.6 mm 1 m/S 617 mmHg 74%
    10:00 +15°C° 1.1 mm 1 m/S 616 mmHg 75%
    11:00 +15°C° 1.1 mm 1 m/S 616 mmHg 76%
    12:00 +15°C° 1.1 mm 1 m/S 615 mmHg 77%
    13:00 +14°C° 1.1 mm 1 m/S 615 mmHg 80%
    14:00 +14°C° 1.1 mm 1 m/S 614 mmHg 82%
    15:00 +14°C° 1.1 mm 2 m/S 614 mmHg 85%
    16:00 +13°C° 0.7 mm 1 m/S 613 mmHg 87%
    17:00 +12°C° 0.7 mm 1 m/S 613 mmHg 88%
    18:00 +12°C° 0.7 mm 1 m/S 612 mmHg 90%
    19:00 +11°C° 1.1 mm 1 m/S 612 mmHg 92%
    20:00 +9°C° 1.1 mm 0 m/S 612 mmHg 95%
    21:00 +9°C° 1.1 mm 0 m/S 612 mmHg 98%
    22:00 +9°C° 0.3 mm 0 m/S 612 mmHg 98%
    23:00 +9°C° 0.3 mm 1 m/S 611 mmHg 98%

    Morgen, 4 Juni, Donnerstag

    Zeit Temperatur Niederschläge Wind Luftdruck Luftfeuchtigkeit
    00:00 +9°C° 0.3 mm 1 m/S 611 mmHg 99%
    01:00 +9°C° 1.4 mm 1 m/S 611 mmHg 99%
    02:00 +8°C° 1.4 mm 1 m/S 610 mmHg 98%
    03:00 +8°C° 1.4 mm 1 m/S 610 mmHg 98%
    04:00 +7°C° 4.6 mm 1 m/S 609 mmHg 98%
    05:00 +7°C° 4.6 mm 1 m/S 609 mmHg 98%
    06:00 +6°C° 4.6 mm 1 m/S 609 mmHg 97%
    07:00 +7°C° 1.1 mm 1 m/S 609 mmHg 95%
    08:00 +7°C° 1.1 mm 1 m/S 609 mmHg 93%
    09:00 +8°C° 1.1 mm 1 m/S 609 mmHg 91%
    10:00 +8°C° 0.2 mm 1 m/S 610 mmHg 87%
    11:00 +8°C° 0.2 mm 2 m/S 610 mmHg 83%
    12:00 +9°C° 0.2 mm 2 m/S 610 mmHg 79%
    13:00 +8°C° 1 mm 2 m/S 609 mmHg 83%
    14:00 +7°C° 1 mm 2 m/S 609 mmHg 87%
    15:00 +6°C° 1 mm 2 m/S 608 mmHg 91%
    16:00 +6°C° 0.5 mm 2 m/S 608 mmHg 90%
    17:00 +6°C° 0.5 mm 2 m/S 609 mmHg 90%
    18:00 +6°C° 0.5 mm 2 m/S 609 mmHg 90%
    19:00 +5°C° 0.1 mm 2 m/S 609 mmHg 91%
    20:00 +5°C° 0.1 mm 2 m/S 610 mmHg 93%
    21:00 +4°C° 0.1 mm 2 m/S 610 mmHg 94%
    22:00 +4°C° 0.1 mm 2 m/S 610 mmHg 94%
    23:00 +4°C° 0.1 mm 2 m/S 610 mmHg 95%

    übermorgen, 5 Juni, Freitag

    Zeit Temperatur Niederschläge Wind Luftdruck Luftfeuchtigkeit
    00:00 +3°C° 0.1 mm 2 m/S 611 mmHg 95%
    01:00 +3°C° 0.1 mm 2 m/S 611 mmHg 94%
    02:00 +3°C° 0.1 mm 2 m/S 611 mmHg 94%
    03:00 +3°C° 0.1 mm 2 m/S 611 mmHg 94%
    04:00 +3°C° 0 mm 2 m/S 611 mmHg 92%
    05:00 +3°C° 0 mm 2 m/S 612 mmHg 91%
    06:00 +4°C° 0 mm 2 m/S 612 mmHg 90%
    07:00 +5°C° 0 mm 2 m/S 613 mmHg 82%
    08:00 +7°C° 0 mm 2 m/S 614 mmHg 74%
    09:00 +8°C° 0 mm 2 m/S 614 mmHg 67%
    10:00 +10°C° 0 mm 2 m/S 615 mmHg 62%
    11:00 +13°C° 0 mm 2 m/S 616 mmHg 57%
    12:00 +14°C° 0 mm 2 m/S 617 mmHg 52%
    13:00 +14°C° 0 mm 2 m/S 617 mmHg 54%
    14:00 +14°C° 0 mm 2 m/S 617 mmHg 57%
    15:00 +14°C° 0 mm 2 m/S 617 mmHg 59%
    16:00 +13°C° 0 mm 2 m/S 616 mmHg 66%
    17:00 +12°C° 0 mm 1 m/S 616 mmHg 73%
    18:00 +11°C° 0 mm 1 m/S 616 mmHg 80%
    19:00 +10°C° 0 mm 1 m/S 616 mmHg 85%
    20:00 +9°C° 0 mm 1 m/S 616 mmHg 89%
    21:00 +8°C° 0 mm 1 m/S 615 mmHg 93%
    22:00 +7°C° 0 mm 1 m/S 615 mmHg 94%
    23:00 +7°C° 0 mm 1 m/S 615 mmHg 94%

    6 Juni, Samstag

    Zeit Temperatur Niederschläge Wind Luftdruck Luftfeuchtigkeit
    00:00 +6°C° 0 mm 1 m/S 615 mmHg 94%
    01:00 +6°C° 0 mm 1 m/S 615 mmHg 94%
    02:00 +6°C° 0 mm 1 m/S 614 mmHg 94%
    03:00 +5°C° 0 mm 0 m/S 614 mmHg 93%
    04:00 +6°C° 0 mm 0 m/S 615 mmHg 91%
    05:00 +7°C° 0 mm 0 m/S 615 mmHg 89%
    06:00 +8°C° 0 mm 0 m/S 616 mmHg 86%
    07:00 +11°C° 0 mm 1 m/S 617 mmHg 78%
    08:00 +13°C° 0 mm 1 m/S 617 mmHg 69%
    09:00 +15°C° 0 mm 2 m/S 618 mmHg 61%
    10:00 +15°C° 0.2 mm 2 m/S 618 mmHg 63%
    11:00 +15°C° 0.2 mm 2 m/S 618 mmHg 66%
    12:00 +15°C° 0.2 mm 2 m/S 617 mmHg 69%
    13:00 +14°C° 0.6 mm 2 m/S 617 mmHg 74%
    14:00 +13°C° 0.6 mm 2 m/S 616 mmHg 80%
    15:00 +13°C° 0.6 mm 1 m/S 616 mmHg 85%
    16:00 +12°C° 0.8 mm 1 m/S 615 mmHg 87%
    17:00 +12°C° 0.8 mm 1 m/S 615 mmHg 89%
    18:00 +12°C° 0.8 mm 1 m/S 615 mmHg 91%
    19:00 +11°C° 1.5 mm 1 m/S 615 mmHg 93%
    20:00 +10°C° 1.5 mm 1 m/S 615 mmHg 94%
    21:00 +9°C° 1.5 mm 1 m/S 615 mmHg 96%
    22:00 +9°C° 0.6 mm 1 m/S 615 mmHg 96%
    23:00 +8°C° 0.6 mm 0 m/S 615 mmHg 96%

    7 Juni, Sonntag

    Zeit Temperatur Niederschläge Wind Luftdruck Luftfeuchtigkeit
    00:00 +7°C° 0.6 mm 0 m/S 614 mmHg 96%
    01:00 +7°C° 0 mm 0 m/S 614 mmHg 95%
    02:00 +7°C° 0 mm 0 m/S 614 mmHg 95%
    03:00 +7°C° 0 mm 0 m/S 614 mmHg 95%
    04:00 +8°C° 0.1 mm 0 m/S 615 mmHg 94%
    05:00 +8°C° 0.1 mm 0 m/S 615 mmHg 94%
    06:00 +8°C° 0.1 mm 0 m/S 615 mmHg 93%
    07:00 +10°C° 0.7 mm 1 m/S 616 mmHg 92%
    08:00 +10°C° 0.7 mm 1 m/S 616 mmHg 92%
    09:00 +11°C° 0.7 mm 1 m/S 616 mmHg 91%
    10:00 +11°C° 1.1 mm 1 m/S 616 mmHg 91%
    11:00 +11°C° 1.1 mm 1 m/S 617 mmHg 91%
    12:00 +11°C° 1.1 mm 1 m/S 617 mmHg 90%
    13:00 +11°C° 1 mm 1 m/S 617 mmHg 91%
    14:00 +11°C° 1 mm 1 m/S 616 mmHg 91%
    15:00 +11°C° 1 mm 1 m/S 616 mmHg 91%
    16:00 +10°C° 0.7 mm 1 m/S 616 mmHg 92%
    17:00 +9°C° 0.7 mm 1 m/S 616 mmHg 93%
    18:00 +8°C° 0.7 mm 2 m/S 616 mmHg 94%
    19:00 +8°C° 0.2 mm 1 m/S 616 mmHg 95%
    20:00 +8°C° 0.2 mm 1 m/S 616 mmHg 95%
    21:00 +7°C° 0.2 mm 1 m/S 617 mmHg 96%
    22:00 +7°C° 0.1 mm 1 m/S 617 mmHg 96%
    23:00 +7°C° 0.1 mm 1 m/S 617 mmHg 96%

    8 Juni, Montag

    Zeit Temperatur Niederschläge Wind Luftdruck Luftfeuchtigkeit
    00:00 +7°C° 0.1 mm 1 m/S 617 mmHg 96%
    01:00 +7°C° 0.1 mm 1 m/S 617 mmHg 96%
    02:00 +6°C° 0.1 mm 1 m/S 616 mmHg 96%
    03:00 +6°C° 0.1 mm 1 m/S 616 mmHg 97%
    04:00 +6°C° 0 mm 1 m/S 616 mmHg 96%
    05:00 +6°C° 0 mm 1 m/S 617 mmHg 95%
    06:00 +6°C° 0 mm 1 m/S 617 mmHg 94%
    07:00 +7°C° 0 mm 1 m/S 617 mmHg 90%
    08:00 +8°C° 0 mm 1 m/S 618 mmHg 86%
    09:00 +9°C° 0 mm 1 m/S 618 mmHg 82%
    10:00 +10°C° 0.1 mm 1 m/S 618 mmHg 80%
    11:00 +9°C° 0.1 mm 2 m/S 618 mmHg 78%
    12:00 +10°C° 0.1 mm 2 m/S 619 mmHg 76%
    13:00 +10°C° 0.2 mm 2 m/S 618 mmHg 77%
    14:00 +10°C° 0.2 mm 2 m/S 618 mmHg 79%
    15:00 +11°C° 0.2 mm 1 m/S 618 mmHg 80%
    16:00 +10°C° 0.2 mm 1 m/S 618 mmHg 83%
    17:00 +9°C° 0.2 mm 1 m/S 618 mmHg 86%
    18:00 +9°C° 0.2 mm 1 m/S 617 mmHg 89%
    19:00 +8°C° 0.1 mm 1 m/S 617 mmHg 91%
    20:00 +8°C° 0.1 mm 1 m/S 617 mmHg 92%
    21:00 +7°C° 0.1 mm 1 m/S 618 mmHg 94%
    22:00 +6°C° 0 mm 0 m/S 618 mmHg 94%
    23:00 +6°C° 0 mm 0 m/S 618 mmHg 95%
    Mehr zeigen